OE3MHU-12 Weather Reports


time (UTC)temp
C
wind
direction
speed
KPH
gust
KPH
rain 1hr
cm
rain 24hr
cm
rain mn
cm
humidity
%
barometer
mb
20260502212547 10 139 0.0 0.0 0.00 0.00 0.00 59 1019.0
20260502205547 11 139 0.0 0.0 0.00 0.00 0.00 57 1019.1
20260502202547 11 139 0.0 1.6 0.00 0.00 0.00 55 1019.4
20260502195547 12 128 1.6 3.2 0.00 0.00 0.00 53 1019.5
20260502192547 13 130 1.6 1.6 0.00 0.00 0.00 50 1019.5
20260502185547 14 131 0.0 3.2 0.00 0.00 0.00 48 1019.4
20260502182547 17 128 0.0 0.0 0.00 0.00 0.00 41 1019.2
20260502162548 23 102 1.6 4.8 0.00 0.00 0.00 25 1019.4
20260502122549 23 170 3.2 9.7 0.00 0.00 0.00 28 1022.2
20260502115549 22 283 1.6 8.0 0.00 0.00 0.00 30 1022.4
20260502112549 22 204 1.6 6.4 0.00 0.00 0.00 34 1023.0
20260502102549 22 110 3.2 6.4 0.00 0.00 0.00 37 1023.6
20260502045550 2 10 0.0 0.0 0.00 0.00 0.00 85 1025.9
20260502042550 1 10 0.0 0.0 0.00 0.00 0.00 84 1025.9
20260502035550 1 10 0.0 0.0 0.00 0.00 0.00 83 1025.7
20260502032550 2 10 0.0 0.0 0.00 0.00 0.00 83 1025.6
20260502025550 2 10 0.0 0.0 0.00 0.00 0.00 82 1025.7
20260502022550 2 10 0.0 0.0 0.00 0.00 0.00 82 1025.9
20260502015550 2 10 0.0 0.0 0.00 0.00 0.00 81 1026.0
20260502012551 3 10 0.0 0.0 0.00 0.00 0.00 80 1026.2
20260502005551 3 9 0.0 0.0 0.00 0.00 0.00 79 1026.4
20260502002741 4 10 0.0 0.0 0.00 0.00 0.00 78 1026.6
20260502002551 4 10 0.0 0.0 0.00 0.00 0.00 78 1026.6
20260501235551 4 10 0.0 0.0 0.00 0.00 0.00 78 1026.5
20260501232551 5 10 0.0 0.0 0.00 0.00 0.00 76 1026.7
20260501225552 5 10 0.0 0.0 0.00 0.00 0.00 75 1026.8
20260501222551 5 10 0.0 0.0 0.00 0.00 0.00 74 1026.8
20260501215551 6 10 0.0 0.0 0.00 0.00 0.00 72 1026.9